Date String (YYYY-MM-DD hh:mm:ss) UTC,Instrument flags,Ambient pressure (hPa),Sample flow (lpm),Bypass flow (lpm),Sample temperature (°C),Ambient temperature (°C),ASC tube jacket temperature (°C),LED temperature (°C),Box temperature (°C),Sample RH (%),Span deviation,Mass concentration (μg/m³),Mass concentration (μg/m³),Mass concentration (μg/m³)
DateTimeUTC,F1_M11,P_M11,Q1_M11,Q2_M11,T1_M11,T2_M11,T3_M11,T4_M11,T5_M11,U1_M11,ZSPAN_M11,X0_M11,X2_M11,X1_M11
2023-05-08 08:00:00,,0830.6,5.01,0.00,30.6,29.0,00.0,39.0,32.0,15.4,0000.0,0010.99,0003.70,0002.56
2023-05-08 08:01:00,,0830.5,5.00,0.00,30.6,29.0,00.0,39.0,32.0,15.6,0000.0,0010.89,0003.69,0002.54
2023-05-08 08:02:00,,0830.7,5.00,0.00,30.6,29.0,00.0,39.0,32.0,15.5,0000.0,0010.64,0003.67,0002.53
2023-05-08 08:03:00,,0830.5,4.99,0.00,30.6,29.0,00.0,39.0,32.0,15.3,0000.0,0010.31,0003.59,0002.49
2023-05-08 08:04:00,,0830.6,5.00,0.00,30.6,29.0,00.0,39.0,32.0,15.2,0000.0,0009.66,0003.51,0002.42
2023-05-08 08:05:00,,0830.6,5.00,0.00,30.6,29.0,00.0,39.0,32.0,15.0,0000.0,0009.24,0003.47,0002.37
2023-05-08 08:06:00,,0830.6,5.00,0.00,30.6,29.0,00.0,39.0,32.0,15.0,0000.0,0009.05,0003.43,0002.32
2023-05-08 08:07:00,,0830.7,5.00,0.00,30.6,29.0,00.0,39.0,32.0,15.0,0000.0,0009.10,0003.40,0002.25
2023-05-08 08:08:00,,0830.7,5.00,0.00,30.6,29.0,00.0,39.0,32.0,14.9,0000.0,0009.67,0003.44,0002.21
2023-05-08 08:09:00,,0830.6,5.00,0.00,30.6,28.9,00.0,39.0,31.9,14.9,0000.0,0009.63,0003.40,0002.17
2023-05-08 08:10:00,,0830.7,5.00,0.00,30.6,28.9,00.0,39.0,31.9,14.9,0000.0,0009.22,0003.37,0002.14
2023-05-08 08:11:00,,0830.7,5.00,0.00,30.6,28.9,00.0,39.0,31.9,15.0,0000.0,0009.49,0003.36,0002.12
2023-05-08 08:12:00,,0830.7,4.99,0.00,30.6,28.9,00.0,39.0,31.9,15.0,0000.0,0010.07,0003.36,0002.10
2023-05-08 08:13:00,,0830.7,5.01,0.00,30.6,28.9,00.0,39.0,31.9,14.9,0000.0,0009.75,0003.35,0002.05
2023-05-08 08:14:00,,0830.6,5.00,0.00,30.6,28.9,00.0,39.0,31.9,15.0,0000.0,0009.23,0003.39,0002.03
2023-05-08 08:15:00,,0830.7,5.00,0.00,30.6,28.9,00.0,39.0,31.9,15.0,0000.0,0009.37,0003.43,0002.03
2023-05-08 08:16:00,,0830.6,5.00,0.00,30.5,28.8,00.0,39.0,31.9,15.0,0000.0,0009.72,0003.44,0002.02
2023-05-08 08:17:00,,0830.6,4.99,0.00,30.5,28.8,00.0,39.0,31.9,15.0,0000.0,0009.82,0003.44,0002.03
2023-05-08 08:18:00,,0830.6,5.01,0.00,30.5,28.8,00.0,39.0,31.9,15.0,0000.0,0009.78,0003.44,0002.04
2023-05-08 08:19:00,,0830.6,5.01,0.00,30.5,28.8,00.0,39.0,31.8,14.9,0000.0,0009.07,0003.39,0002.04
2023-05-08 08:20:00,,0830.6,5.00,0.00,30.5,28.8,00.0,39.0,31.8,14.9,0000.0,0008.92,0003.38,0002.05
2023-05-08 08:21:00,,0830.6,4.99,0.00,30.5,28.8,00.0,39.0,31.9,15.0,0000.0,0008.88,0003.37,0002.06
2023-05-08 08:22:00,,0830.7,5.00,0.00,30.5,28.8,00.0,39.0,31.9,15.0,0000.0,0008.33,0003.35,0002.06
2023-05-08 08:23:00,,0830.7,5.00,0.00,30.5,28.8,00.0,38.9,31.9,15.0,0000.0,0007.61,0003.33,0002.06
2023-05-08 08:24:00,,0830.7,5.01,0.00,30.5,28.8,00.0,38.9,31.9,15.1,0000.0,0008.09,0003.33,0002.08
2023-05-08 08:25:00,,0830.7,5.00,0.00,30.5,28.8,00.0,38.9,31.8,15.0,0000.0,0009.18,0003.30,0002.09
2023-05-08 08:26:00,,0830.6,4.99,0.00,30.5,28.7,00.0,38.9,31.8,15.0,0000.0,0009.72,0003.28,0002.09
2023-05-08 08:27:00,,0830.6,4.99,0.00,30.5,28.7,00.0,38.9,31.8,15.3,0000.0,0009.88,0003.26,0002.11
2023-05-08 08:28:00,,0830.6,5.00,0.00,30.5,28.7,00.0,38.9,31.8,15.4,0000.0,0010.23,0003.29,0002.14
2023-05-08 08:29:00,,0830.6,5.01,0.00,30.5,28.7,00.0,38.9,31.8,15.6,0000.0,0010.38,0003.34,0002.19
2023-05-08 08:30:00,,0830.6,5.00,0.00,30.4,28.7,00.0,38.9,31.8,15.5,0000.0,0010.40,0003.37,0002.22
2023-05-08 08:31:00,,0830.6,5.00,0.00,30.4,28.8,00.0,38.9,31.8,15.6,0000.0,0010.53,0003.40,0002.26
2023-05-08 08:32:00,,0830.7,4.99,0.00,30.4,28.8,00.0,38.9,31.8,15.6,0000.0,0010.57,0003.42,0002.29
2023-05-08 08:33:00,,0830.7,5.02,0.00,30.4,28.8,00.0,38.9,31.8,15.3,0000.0,0011.08,0003.45,0002.31
2023-05-08 08:34:00,,0830.7,4.99,0.00,30.4,28.8,00.0,38.9,31.8,15.0,0000.0,0012.90,0003.46,0002.32
2023-05-08 08:35:00,,0830.7,4.99,0.00,30.4,28.7,00.0,38.9,31.8,15.1,0000.0,0012.91,0003.48,0002.32
2023-05-08 08:36:00,,0830.7,5.00,0.00,30.4,28.7,00.0,38.9,31.8,15.0,0000.0,0012.03,0003.54,0002.34
2023-05-08 08:37:00,,0830.7,5.01,0.00,30.4,28.7,00.0,38.9,31.7,14.9,0000.0,0011.50,0003.53,0002.31
2023-05-08 08:38:00,,0830.7,5.00,0.00,30.4,28.7,00.0,38.9,31.8,14.9,0000.0,0011.17,0003.51,0002.29
2023-05-08 08:39:00,,0830.7,4.99,0.00,30.4,28.7,00.0,38.9,31.8,14.8,0000.0,0011.17,0003.48,0002.24
2023-05-08 08:40:00,,0830.8,5.00,0.00,30.4,28.7,00.0,38.9,31.8,14.9,0000.0,0011.33,0003.43,0002.20
2023-05-08 08:41:00,,0830.8,5.00,0.00,30.4,28.7,00.0,38.8,31.7,14.8,0000.0,0011.75,0003.41,0002.17
2023-05-08 08:42:00,,0830.8,5.01,0.00,30.4,28.7,00.0,38.8,31.8,15.0,0000.0,0011.59,0003.36,0002.12
2023-05-08 08:43:00,,0830.8,5.00,0.00,30.4,28.7,00.0,38.8,31.8,15.0,0000.0,0011.60,0003.35,0002.08
2023-05-08 08:44:00,,0830.8,5.00,0.00,30.4,28.7,00.0,38.8,31.7,14.9,0000.0,0011.11,0003.33,0002.05
2023-05-08 08:45:00,,0830.8,5.00,0.00,30.4,28.7,00.0,38.8,31.7,15.0,0000.0,0009.58,0003.33,0002.02
2023-05-08 08:46:00,,0830.8,4.99,0.00,30.4,28.7,00.0,38.8,31.7,14.9,0000.0,0009.37,0003.29,0002.01
2023-05-08 08:47:00,,0830.8,4.99,0.00,30.4,28.7,00.0,38.8,31.8,14.8,0000.0,0009.16,0003.20,0001.98
2023-05-08 08:48:00,,0830.8,5.01,0.00,30.4,28.7,00.0,38.8,31.7,14.8,0000.0,0008.97,0003.15,0001.97
2023-05-08 08:49:00,,0830.8,5.01,0.00,30.4,28.7,00.0,38.8,31.7,14.9,0000.0,0009.47,0003.16,0001.96
2023-05-08 08:50:00,,0830.8,5.00,0.00,30.4,28.7,00.0,38.8,31.7,14.8,0000.0,0008.83,0003.14,0001.96
2023-05-08 08:51:00,,0830.9,4.99,0.00,30.4,28.7,00.0,38.8,31.7,14.8,0000.0,0008.73,0003.11,0001.95
2023-05-08 08:52:00,,0830.9,4.99,0.00,30.3,28.6,00.0,38.8,31.7,14.9,0000.0,0008.04,0003.05,0001.93
2023-05-08 08:53:00,,0830.8,5.00,0.00,30.4,28.6,00.0,38.8,31.7,14.8,0000.0,0008.30,0003.08,0001.93
2023-05-08 08:54:00,,0830.8,5.01,0.00,30.3,28.6,00.0,38.8,31.7,14.8,0000.0,0008.84,0003.14,0001.92
2023-05-08 08:55:00,,0830.8,5.00,0.00,30.3,28.6,00.0,38.8,31.7,14.8,0000.0,0008.93,0003.14,0001.91
2023-05-08 08:56:00,,0830.8,5.00,0.00,30.3,28.6,00.0,38.8,31.7,14.9,0000.0,0008.87,0003.13,0001.92
2023-05-08 08:57:00,,0830.7,5.00,0.00,30.3,28.6,00.0,38.8,31.7,14.9,0000.0,0008.50,0003.13,0001.92
2023-05-08 08:58:00,,0830.7,5.00,0.00,30.3,28.6,00.0,38.8,31.7,14.9,0000.0,0008.35,0003.17,0001.95
2023-05-08 08:59:00,,0830.7,5.00,0.00,30.3,28.6,00.0,38.8,31.8,15.0,0000.0,0008.48,0003.23,0001.97
